Вернуться в каталог

CZ-6A DEB

АктивенSSO
NORAD 54292·DEBRIS·🇨🇳 China

Запущен Nov 11, 2022 с Taiyuan Satellite Launch Center

Loading…

Ближайшие Пролёты (ближайшие 24 часа)

TLE

СвежийSource: Space-Track

Эпоха: Sep 14, 2026, 06:05 UTC

1 54292U 22151AK  26257.25347950  .00000059  00000-0  61255-4 0  9997
2 54292  98.8809 249.7815 0063126 115.6606 245.1101 14.05798240196443

Отслеживайте CZ-6A DEB в реальном времени с AllMySat

Download on the App Store